Vertical_Velocity
0 -1 -0 -0 -0 -1 -1 -0 0 -1 -0 -1 -1 -2 -1 -1 -1 -1 -1 0 0 0 0 -1 -1 1 -3 -1 -1 -1 -0 -0 -1 -0 1 1 -0 -1 -1 -2 -1 -1 -1 -1 -1
0 0 -0 0 -1 -1 -1 0 -1 -0 -0 -0 -2 -1 -1 -0 -1 -2 1 -0 -1 1 3 -3 3 -1 -0 -2 -1 0 -3 2 0 0 -0 -1 -1 -1 -0 -0 -2 -2 -1 -1 -2
0 0 -0 -0 -0 -1 -1 -0 -0 -1 -0 -0 -1 -1 -0 -1 -1 -2 1 -0 -0 -0 1 -1 3 1 -1 -0 0 1 2 1 -0 -0 -0 -1 -1 -2 -1 -1 1 0 -3 -2 -0
1 0 -0 0 -0 -1 0 -1 0 -1 -0 -0 -1 -0 -0 -0 0 -1 -0 -1 -0 0 1 -2 2 1 -0 -1 0 -0 0 -0 -1 -1 -1 -1 -2 1 0 -2 -2 -1 -2 -1 -3
1 0 -0 1 0 0 0 -1 -1 -0 -0 -0 0 -0 1 -0 -1 1 -0 -1 -0 -1 -0 -0 1 1 0 -2 -2 1 1 -0 -1 -1 -2 0 -1 -1 -2 1 -1 -1 -0 -0 -1
0 1 1 0 0 0 1 -1 -1 -0 -1 1 -0 -0 0 -0 0 -0 0 -1 -0 1 -2 1 -1 1 -1 -1 -2 1 -0 -5 -1 -2 -2 0 -0 -0 -1 -1 -1 1 2 1 -1
1 0 1 1 -0 1 -1 -1 -0 -1 1 -0 -0 -0 -1 -2 -0 -0 1 -1 0 -0 -2 -0 -0 0 -5 -1 -0 1 -2 -1 2 -0 -1 -1 0 0 -1 -0 0 -2 1 -1 -1
2 -0 -0 0 1 1 0 -0 -1 1 -1 -1 -0 0 1 0 -1 1 -0 -0 -0 0 -1 -0 -1 -2 -1 -1 -1 -1 -3 -5 -2 -0 -1 -1 -1 1 -0 -2 -1 -1 0 -1 -2
-3 2 -0 -1 -0 0 -1 -1 0 -1 -0 -1 -0 0 1 0 -1 -0 1 -1 -2 -1 -1 -3 -2 -1 -1 -1 -1 -2 -2 -0 -1 -1 -1 -1 -1 -2 -1 -0 -2 -3 -1 -1 -1
-1 -2 0 -1 -2 3 -3 -1 -1 1 0 -1 -0 -0 -0 1 -1 -0 -1 -1 -1 -1 -1 -1 -0 -2 -2 -1 -2 -0 1 -1 -1 0 -1 -2 -1 0 1 -1 -2 -3 -3 -2 -0
2 -2 0 -1 -2 -0 0 -3 -0 0 1 0 1 -2 -1 -1 -1 -0 -1 -1 -0 -1 -1 -0 -2 -0 -1 -1 -1 -2 -1 -2 -1 -0 -0 -1 -1 -1 -2 -1 -1 -1 -3 0 -1
-0 0 -2 -0 -1 -1 -0 -1 -3 -1 -1 -0 -0 0 0 0 -1 -1 -1 -1 -1 -1 -1 -1 -1 0 -0 -0 -0 -1 -1 -1 -1 -0 -1 -2 -2 -1 -0 -3 -2 -1 -1 -1 -1
-1 0 -1 -1 -0 1 -0 -0 -1 0 -0 -1 -0 -0 -0 -0 -1 -1 -1 -1 -1 0 -0 1 -1 -1 -0 -1 -1 -1 -1 -2 -2 -2 -2 -1 -2 -1 -1 0 0 -2 -1 -1 -1
-0 -1 -1 -2 -1 -2 0 -0 -0 0 -1 -1 -1 -2 -0 -1 -1 -1 -0 -2 -1 0 0 -0 0 -1 -1 -2 -1 -2 -2 -2 -2 -2 -2 -1 -1 -2 -1 -0 -2 -1 -2 -0 -0
-1 -1 -1 -0 -2 -1 -1 -1 0 -0 -0 1 -1 -1 -0 -1 -1 -0 -1 0 -1 -1 -0 -0 -0 0 -0 -2 -1 -2 -1 -1 -2 -2 -2 -2 -1 -0 -1 -3 -4 -4 -2 -1 -1
-0 -1 -1 -2 0 -4 -3 -0 -1 -2 -0 -0 2 -0 -1 -0 1 -0 -1 -0 -1 -1 -0 -1 -0 -1 -1 -2 -2 -0 -0 -1 -1 -1 -3 -1 -1 -2 -2 -3 -4 -2 -3 -2 -1
-1 1 -1 -2 -2 -0 -1 -1 -2 -1 0 -1 -2 0 0 -1 -0 -1 -0 -1 -0 -1 -1 -0 -1 -2 -2 -1 -1 -2 -2 -1 -2 -3 -0 -0 -3 -3 -3 0 -1 -2 -1 -1 -2
-0 -1 1 -2 -3 -2 -2 -2 2 -1 1 0 -1 -1 -2 -0 -1 -0 -1 -1 1 -0 -1 -0 -0 -1 -1 -1 -2 -2 -1 -0 -1 -0 0 0 -1 -0 -2 -3 -3 -1 -1 -1 -2
-1 -1 1 1 -5 -2 -2 -3 1 1 1 1 1 1 1 1 -1 -2 -2 -1 0 0 -0 -1 -0 0 0 -1 -1 -1 -1 -0 -0 0 -2 -1 -2 -1 -2 -2 -2 -2 -2 -2 -1
-1 3 0 -5 -2 -3 -5 5 -4 -1 -4 1 -1 1 -2 -2 -0 1 -0 0 -1 1 1 -1 -2 -1 -1 -0 -1 -1 -2 -2 -2 -1 1 0 0 -1 -2 -2 -2 -3 -3 -3 -2
-0 2 -6 -0 -6 -5 -1 7 -1 -3 -3 -2 0 1 2 2 -2 -1 0 1 -1 -1 -0 0 -1 -2 -1 -2 -2 -2 -1 -1 -1 -2 -2 -1 -2 2 1 2 1 1 1 1 -0
-0 1 -1 -3 -5 -1 2 14 -0 0 -2 -0 -2 -1 1 -1 2 -0 2 0 -0 -1 0 -1 -1 -1 0 -2 -1 -2 -2 -1 -2 -1 -1 -3 -4 -4 -1 -2 -3 -2 -2 1 2
5 5 -7 -7 -13 -0 1 4 -3 3 1 2 -1 -1 -1 0 -0 -1 -1 -2 1 1 1 1 1 -1 -0 -0 -1 -1 -2 -1 -1 -3 -2 -1 -6 -3 -3 -0 -1 -0 0 1 2
-2 -4 -12 -10 0 2 -1 4 -9 2 -3 2 0 1 -2 1 0 3 3 -2 2 -0 -1 -0 0 -0 -1 -2 -1 -2 -1 -2 0 -2 -1 -0 0 -8 -1 -2 -4 -3 -2 -3 -2
-13 -6 9 -5 -8 13 -3 6 -8 -2 3 -0 -2 5 0 -3 -2 2 2 0 2 -0 0 -0 1 -0 -1 -2 -2 -1 -1 -1 -0 -4 -2 -2 4 -8 -1 -2 -3 -2 -1 -2 -0
-2 -4 -7 11 1 -11 -15 2 -1 5 6 3 4 5 -1 -2 6 -1 -1 1 -1 -0 -0 2 1 1 -1 -1 -1 1 -2 1 -3 -1 3 -6 5 -10 -3 -4 -3 -2 -3 -3 -2
8 -2 10 10 7 -23 9 33 26 6 3 1 3 -4 -8 13 -6 -2 4 -5 -1 -1 -1 -2 -0 -0 2 -4 -6 0 0 -1 -1 1 -2 0 -1 -2 -1 3 0 -2 1 -1 -1
Height
5878 5878 5878 5880 5881 5883 5885 5887 5888 5890 5892 5894 5895 5896 5897 5898 5899 5900 5900 5900 5900 5899 5898 5896 5895 5896 5894 5894 5894 5895 5896 5897 5896 5898 5900 5901 5903 5905 5907 5909 5911 5912 5913 5913 5913
5879 5880 5881 5882 5883 5885 5886 5888 5890 5892 5893 5895 5896 5897 5899 5900 5900 5901 5902 5902 5901 5901 5901 5899 5899 5898 5897 5896 5897 5897 5897 5900 5899 5900 5902 5904 5906 5909 5912 5913 5913 5914 5914 5914 5913
5879 5880 5881 5883 5885 5886 5887 5889 5891 5892 5894 5896 5897 5898 5899 5901 5902 5902 5903 5903 5903 5903 5903 5902 5903 5901 5899 5899 5899 5899 5901 5901 5902 5903 5905 5907 5910 5913 5914 5914 5915 5915 5915 5915 5915
5880 5880 5882 5883 5885 5887 5888 5890 5891 5893 5894 5896 5897 5899 5900 5901 5904 5904 5905 5905 5905 5905 5906 5905 5906 5904 5903 5902 5902 5903 5904 5904 5905 5906 5907 5911 5913 5914 5915 5916 5916 5916 5917 5917 5915
5879 5881 5881 5883 5885 5887 5888 5890 5892 5893 5894 5896 5897 5899 5901 5902 5903 5905 5906 5906 5907 5907 5907 5908 5908 5907 5906 5905 5906 5906 5906 5907 5908 5909 5911 5914 5915 5915 5916 5917 5917 5917 5917 5916 5916
5878 5880 5881 5883 5884 5886 5888 5890 5892 5893 5894 5895 5897 5899 5900 5902 5903 5905 5906 5907 5907 5908 5909 5910 5910 5909 5909 5909 5909 5908 5910 5910 5911 5911 5913 5914 5915 5916 5917 5917 5918 5918 5917 5917 5917
5877 5879 5881 5882 5884 5886 5888 5889 5891 5893 5894 5895 5897 5898 5899 5901 5902 5904 5906 5907 5908 5909 5909 5911 5911 5911 5910 5911 5911 5911 5912 5912 5913 5913 5914 5915 5916 5917 5917 5918 5918 5918 5917 5917 5917
5876 5878 5880 5882 5883 5886 5888 5889 5890 5892 5894 5896 5897 5898 5899 5900 5901 5903 5905 5906 5908 5909 5910 5911 5912 5912 5912 5912 5913 5914 5914 5915 5915 5915 5916 5916 5917 5918 5918 5918 5918 5917 5917 5917 5917
5876 5877 5879 5881 5883 5885 5888 5889 5890 5892 5894 5896 5897 5898 5899 5900 5901 5902 5904 5906 5907 5909 5910 5911 5913 5913 5914 5914 5914 5915 5916 5917 5917 5917 5917 5918 5918 5918 5919 5919 5918 5917 5917 5917 5916
5876 5876 5877 5879 5882 5884 5887 5889 5891 5892 5895 5897 5898 5901 5900 5901 5901 5902 5904 5906 5907 5909 5910 5912 5913 5914 5914 5914 5915 5915 5917 5917 5917 5918 5918 5918 5919 5919 5919 5919 5918 5917 5916 5916 5915
5878 5877 5878 5879 5881 5883 5886 5889 5893 5895 5895 5897 5898 5899 5900 5901 5902 5903 5905 5906 5908 5909 5910 5911 5913 5913 5914 5915 5915 5916 5917 5917 5917 5917 5918 5918 5918 5918 5917 5917 5918 5917 5916 5915 5913
5880 5879 5879 5880 5880 5882 5885 5888 5890 5893 5895 5896 5898 5899 5900 5901 5903 5904 5905 5907 5908 5909 5911 5912 5913 5914 5914 5915 5915 5916 5916 5917 5918 5918 5918 5918 5918 5917 5917 5916 5916 5915 5914 5914 5912
5880 5880 5881 5881 5882 5883 5885 5886 5889 5892 5894 5896 5897 5898 5900 5901 5903 5904 5906 5907 5909 5910 5911 5913 5914 5915 5916 5916 5917 5917 5918 5919 5919 5919 5919 5919 5918 5918 5917 5917 5916 5914 5913 5912 5911
5879 5880 5881 5882 5884 5885 5886 5887 5889 5891 5894 5897 5897 5900 5901 5902 5904 5905 5907 5909 5910 5912 5913 5914 5915 5916 5917 5917 5918 5919 5919 5920 5920 5921 5920 5920 5920 5918 5917 5916 5916 5915 5913 5911 5910
5878 5879 5880 5882 5884 5885 5886 5886 5889 5892 5893 5897 5897 5899 5901 5903 5905 5907 5908 5910 5911 5912 5915 5916 5916 5917 5917 5918 5919 5920 5920 5920 5921 5921 5922 5922 5922 5920 5918 5916 5914 5913 5911 5909 5907
5875 5877 5878 5880 5882 5883 5885 5887 5889 5892 5893 5895 5897 5899 5901 5902 5904 5906 5908 5910 5912 5913 5914 5915 5916 5918 5918 5919 5919 5920 5920 5920 5920 5921 5921 5921 5921 5920 5918 5916 5914 5912 5909 5907 5905
5871 5873 5875 5875 5879 5880 5882 5885 5888 5890 5893 5895 5896 5898 5900 5902 5904 5905 5907 5909 5911 5913 5914 5915 5916 5917 5918 5918 5919 5919 5920 5920 5921 5921 5921 5920 5918 5916 5915 5915 5913 5911 5908 5906 5903
5864 5868 5870 5873 5873 5876 5879 5882 5885 5887 5890 5892 5894 5897 5899 5901 5903 5905 5907 5908 5910 5911 5913 5914 5916 5917 5917 5918 5918 5918 5919 5919 5919 5919 5919 5917 5916 5916 5914 5912 5910 5909 5907 5904 5901
5856 5861 5865 5867 5868 5871 5875 5878 5883 5885 5888 5890 5892 5894 5896 5899 5901 5903 5905 5907 5909 5910 5913 5913 5914 5915 5916 5916 5917 5917 5918 5919 5918 5917 5916 5916 5915 5913 5912 5910 5908 5906 5904 5901 5899
5846 5853 5856 5859 5861 5865 5869 5875 5877 5881 5882 5885 5887 5891 5892 5895 5898 5899 5902 5905 5906 5909 5910 5911 5912 5913 5914 5915 5915 5916 5917 5917 5916 5916 5914 5913 5913 5912 5910 5908 5907 5904 5902 5900 5897
5836 5842 5845 5850 5853 5857 5863 5870 5872 5875 5877 5880 5882 5885 5888 5892 5893 5896 5899 5901 5903 5905 5907 5908 5909 5911 5912 5912 5912 5913 5913 5913 5913 5913 5912 5910 5909 5908 5907 5905 5902 5900 5897 5895 5892
5823 5830 5835 5838 5843 5850 5858 5864 5865 5868 5872 5875 5878 5880 5883 5885 5889 5891 5894 5897 5899 5901 5903 5904 5906 5906 5908 5908 5909 5909 5909 5909 5908 5909 5907 5906 5905 5902 5901 5900 5898 5896 5893 5891 5888
5810 5816 5820 5824 5829 5841 5850 5855 5856 5862 5865 5869 5873 5875 5878 5881 5884 5887 5890 5891 5893 5896 5897 5900 5901 5902 5903 5905 5904 5904 5904 5904 5904 5903 5902 5902 5900 5896 5897 5895 5893 5890 5887 5884 5881
5793 5799 5804 5809 5823 5832 5839 5844 5847 5856 5858 5863 5866 5868 5871 5875 5878 5881 5884 5885 5888 5890 5892 5893 5896 5896 5898 5898 5899 5899 5898 5898 5898 5898 5898 5897 5896 5889 5890 5889 5886 5884 5880 5877 5875
5774 5783 5793 5799 5809 5820 5828 5835 5836 5843 5849 5851 5857 5862 5865 5868 5870 5874 5878 5879 5882 5883 5885 5888 5889 5889 5890 5892 5891 5892 5893 5891 5892 5890 5891 5891 5890 5885 5885 5882 5879 5877 5874 5872 5869
5759 5767 5778 5788 5797 5801 5810 5819 5827 5835 5841 5845 5850 5855 5856 5859 5863 5866 5869 5870 5873 5875 5877 5880 5881 5881 5882 5882 5885 5886 5887 5886 5885 5885 5885 5883 5882 5877 5877 5875 5873 5871 5869 5866 5862
5744 5751 5764 5775 5783 5790 5799 5810 5818 5825 5829 5832 5837 5840 5843 5850 5849 5854 5859 5860 5863 5867 5869 5870 5871 5873 5874 5874 5874 5877 5881 5878 5878 5878 5876 5876 5874 5869 5869 5868 5866 5864 5861 5857 5853